Regional Weather Roundup
Issued by NWS

Home | Current Version | Previous Version | Graphics & Text | Print | Product List | Glossary On
Versions: 1 2 3 4 5 6 7 8 9 10 11 12 13 14 15 16 17 18 19 20 21 22 23 24 25 26 27 28 29 30 31 32 33 34 35 36 37 38 39 40 41 42 43 44 45 46 47 48 49 50
000
ASUS43 KBIS 210810
RWRND

NORTH DAKOTA REGIONAL WEATHER ROUNDUP
NATIONAL WEATHER SERVICE BISMARCK ND
300 AM CDT THU AUG 21 2014

NOTE: "FAIR" INDICATES FEW OR NO CLOUDS BELOW 12,000 FEET WITH NO
SIGNIFICANT WEATHER AND/OR OBSTRUCTIONS TO VISIBILITY.


NDZ001>003-009>011-017-210900-
NORTHWEST NORTH DAKOTA

CITY           SKY/WX    TMP DP  RH WIND       PRES   REMARKS
WILLISTON      PTCLDY    59  58  96 E3        29.80S
MINOT          CLOUDY    65  63  93 CALM      29.73F
MINOT AFB      CLOUDY    64  64 100 NW1       29.74S
$$

NDZ018>021-031>035-040>046-210900-
SOUTHWEST NORTH DAKOTA

CITY           SKY/WX    TMP DP  RH WIND       PRES   REMARKS
BISMARCK       CLOUDY    69  67  93 NW8       29.72F
DICKINSON      CLEAR     57  56  96 NW5       29.80S
GARRISON         N/A     65  64  97 NW8       29.74F
HETTINGER ARPT CLEAR     55  53  93 NW6       29.82F
$$

NDZ004>008-012>016-024-026-027-054-210900-
NORTHEAST NORTH DAKOTA

CITY           SKY/WX    TMP DP  RH WIND       PRES   REMARKS
GRAND FORKS    MOCLDY    71  65  81 SE14G21   29.71F
GRND FRKS AFB  CLOUDY    68  68  99 SE10      29.72S
DEVILS LAKE    CLOUDY    70  64  83 E6        29.70S
$$

NDZ022-023-025-028>030-036>039-047>053-210900-
SOUTHEAST NORTH DAKOTA

CITY           SKY/WX    TMP DP  RH WIND       PRES   REMARKS
FARGO          CLOUDY    72  66  81 SE13      29.73S
JAMESTOWN      CLOUDY    71  68  90 CALM      29.68R
$$



USA.gov is the U.S. government's official web portal to all federal, state and local government web resources and services.